星链-5717 (STARLINK-5717 )

导读

STARLINK-5717是美国太空探索技术公司SpaceX于2023年2月12日发射的星链(Starlink)系列卫星,属于全球低轨卫星互联网星座的组成部分。星链项目旨在通过部署数千颗低轨卫星,为全球尤其是偏远地区提供高速、低延迟的宽带互联网服务,目前已大规模部署并持续扩展星座规模。卫星运行在近地轨道,服务全球用户接入网络,同时星链也引发了关于太空拥堵和天文观测影响的讨论。

Basic Information
目录编号:
55618
目录名称:
STARLINK-5717
国际标识:
2023-020BB
轨道中心:
EARTH
卫星名称:
星链-5717
卫星全名:
星链-5717 (STARLINK-5717 )
卫星状态:
在轨 (已飞行1300 天)
发射日期:
2023-02-12 UTC
国别 :
美国 (US)
星等 :
--
Orbit Information
数据来源 国际轨道数据
星历时间: 2026-09-04T13:06:16+0800
12小时前
查看轨道信息
半长轴: 6861.184km
偏心率: 0.0001475
轨道倾角: 43.007°
近地点辐角 280.551°
升交点赤经 65.892°
平近点角 79.518°
近地点: 482.034km
远地点: 484.06km
周期: 94.267分钟
每日圈数: 15.275809
Detailed Information
固有亮度:
5
最大亮度:
2.5
卫星平台:
Starlink v1.5
覆盖范围:
全球
运营商:
太空探索技术公司
运营商所在国:
美国
制造商(研发单位):
太空探索技术公司
制造商所在国:
美国
使用方式:
暂无
Satellite Introduction
星链(Starlink)计划是由太空探索技术公司(SpaceX)提出的一个巨型低轨卫星互联网星座项目,计划在2019年至2024年间在太空搭建由约1.2万颗卫星组成的“星链”网络,其中1584颗将部署在地球上空550千米处的近地轨道,并从2020年开始工作。该卫星仍在工作。
2D Orbit Map
3D Orbit Map
Orbit Altitude Analysis Chart
Orbit Inclination Analysis Chart
Orbit Comprehensive Analysis Chart
View Comprehensive Chart
Conjunction Data List
Event ID Objects TCA Miss Dist (km) Collision Risk Probability Collision Risk Index (CRI) Action
CDM_260906-132205-561805-919721
2026-09-06T
13:22:55+0000
0.624 km
远距离
7.858578E-5 中风险 0.73
CDM_260906-210405-561806-247921
2026-09-06T
21:04:32+0000
0.606 km
远距离
2.955302E-5 中风险 0.64
CDM_260906-114805-561805-919721
2026-09-06T
11:48:46+0000
1.016 km
极远距离
1.649518E-5 中风险 0.59
CDM_260901-060905-561806-705422
2026-09-01T
06:09:59+0000
1.109 km
极远距离
7.487432E-6 低风险 0.52
CDM_260906-145705-561805-919721
2026-09-06T
14:57:04+0000
2.171 km
极远距离
1.596226E-6 低风险 0.39
CDM_260906-215105-561806-247921
2026-09-06T
21:51:36+0000
1.477 km
极远距离
1.595123E-6 低风险 0.39
CDM_260907-041705-561805-919721
2026-09-07T
04:17:23+0000
2.283 km
极远距离
1.43728E-6 低风险 0.38
CDM_260906-043505-561806-729021
2026-09-06T
04:35:30+0000
2.767 km
极远距离
1.278836E-6 低风险 0.37
CDM_260906-101405-561805-919721
2026-09-06T
10:14:36+0000
2.510 km
极远距离
1.204785E-6 低风险 0.37
CDM_260906-193005-561806-247921
2026-09-06T
19:30:22+0000
2.467 km
极远距离
5.010438E-7 极低风险 0.29